Location: Richmond
(37.5536°N, 77.4606°W)
Time: 04:24:43

ISS - Visible Passes

Search period start: 07 October 2015 00:00
Search period end: 17 October 2015 00:00
Orbit: 400 x 409 km, 51.6° (Epoch: 06 October)

Date Brightness Start Highest point End Pass type
(mag) Time Alt. Az. Time Alt. Az. Time Alt. Az.
07 Oct -0.8 19:59:16 10° WNW 20:01:35 17° NNW 20:03:51 10° NNE visible
08 Oct -1.5 19:06:15 10° W 19:09:05 27° NNW 19:11:56 10° NNE visible
09 Oct -0.5 19:52:45 10° NW 19:53:48 11° NNW 19:54:48 10° N visible
16 Oct -0.6 20:13:48 10° N 20:14:18 11° N 20:14:18 11° N visible
